Wind_Speed
48 48 53 43 35 37 36 35 41 35 29 40 42 42 46 48 47 43 41 41 39 35 37 32 30 28 27 27 27 27 26 25 22 21 21 21 20 19 21 22 21 22 22 23
51 47 45 50 46 39 39 38 38 37 42 34 44 44 50 53 50 48 45 45 43 41 37 35 33 31 29 29 29 28 27 25 26 25 24 23 23 22 23 24 25 24 25 25
48 46 44 46 49 50 39 32 37 40 43 37 41 48 53 55 53 52 49 49 49 45 40 37 36 35 34 31 30 31 30 29 28 27 26 25 25 26 26 26 26 26 25 26
53 48 44 43 44 46 45 38 40 42 43 44 42 51 54 57 56 54 52 52 49 47 42 40 37 35 35 35 34 32 31 30 29 29 28 27 28 27 28 27 27 26 27 28
50 53 45 41 42 45 44 48 46 46 46 42 44 52 54 61 61 57 54 53 49 46 43 42 41 40 39 36 34 33 33 31 31 31 30 28 28 29 30 28 29 29 29 30
51 49 51 45 45 49 52 43 50 48 52 43 38 46 49 62 59 56 53 52 50 47 45 45 44 42 39 37 36 36 34 33 34 34 34 31 31 32 31 31 32 31 32 33
53 51 52 52 50 49 49 52 47 51 49 47 43 49 43 58 61 56 54 53 52 51 50 49 47 43 42 40 40 39 38 36 37 37 37 36 34 34 33 33 35 34 35 37
54 51 49 53 57 51 53 55 54 48 57 53 48 39 37 43 66 55 53 53 52 51 49 47 45 44 44 43 43 42 42 40 39 39 40 39 38 36 36 37 37 38 40 41
53 52 52 51 52 52 55 56 48 46 46 50 46 35 37 36 51 59 52 51 50 52 49 46 45 45 45 45 45 45 45 43 43 41 41 41 41 40 39 40 40 41 43 45
53 49 48 49 50 50 50 47 49 50 56 54 50 44 41 42 42 56 57 54 47 50 49 47 46 47 47 48 49 48 47 45 45 44 44 44 44 43 43 42 43 45 47 48
54 50 50 50 52 48 48 51 53 52 49 48 49 47 42 44 42 45 55 48 47 49 49 49 49 49 49 49 49 49 49 49 48 47 47 45 44 44 44 45 46 48 50 51
54 54 51 48 47 44 43 44 45 46 44 50 48 45 47 47 44 40 44 42 43 45 49 51 51 51 51 50 50 50 50 49 49 49 47 46 46 45 47 48 50 51 52 53
51 55 56 54 52 48 45 45 47 47 48 48 46 41 42 45 43 38 37 40 40 40 46 48 49 50 50 50 48 47 47 47 47 48 49 49 49 49 50 51 52 53 54 50
50 48 52 55 53 51 48 48 49 49 50 49 49 48 43 40 38 37 37 34 34 36 39 41 43 45 47 48 48 48 50 49 50 50 51 51 51 51 52 53 54 53 50 46
57 56 53 52 55 50 47 42 46 47 45 47 40 46 39 31 32 33 34 35 34 35 33 39 43 44 43 43 45 48 48 48 50 50 51 51 53 54 54 53 51 49 48 48
60 58 54 57 53 56 55 46 44 51 49 44 43 41 41 35 29 34 34 37 38 39 37 38 38 39 41 46 48 47 48 49 49 50 51 52 52 54 54 53 51 50 48 47
58 54 53 56 54 55 57 54 53 51 50 43 42 30 32 30 33 36 40 42 43 42 42 44 45 46 47 47 48 48 50 50 50 49 50 52 52 51 51 49 49 48 50 53
56 55 52 50 51 56 48 50 51 50 51 46 38 37 35 34 30 35 44 41 44 42 46 45 43 44 44 45 45 47 47 48 49 51 51 52 53 50 50 51 52 55 58 61
52 53 54 55 54 49 47 43 44 49 47 42 39 39 42 40 41 37 34 40 46 43 39 41 47 49 50 51 53 54 54 55 56 55 50 48 50 54 55 55 60 62 63 66
49 48 50 53 54 54 42 45 43 44 47 39 41 42 43 43 43 33 33 39 42 46 51 52 50 47 48 48 53 56 56 57 56 55 56 58 60 63 64 66 68 68 70 72
44 48 49 51 54 48 50 47 47 47 35 35 40 44 45 44 41 42 40 37 41 43 47 51 54 56 57 58 58 58 58 58 59 62 63 62 62 65 67 68 69 72 73 73
49 47 46 46 47 45 47 51 49 43 42 45 44 45 45 45 45 46 46 47 47 46 46 48 53 54 56 58 59 59 58 58 61 63 65 67 67 65 65 66 68 68 68 69
43 48 50 51 47 48 46 44 44 41 42 44 45 44 45 48 50 51 53 54 53 53 53 52 50 48 49 51 53 54 54 57 61 64 64 65 65 65 66 66 66 68 70 73
36 37 42 43 44 45 48 50 49 49 47 47 49 52 53 51 51 53 53 56 56 56 56 56 56 54 52 51 50 50 50 51 54 57 60 64 66 67 68 69 70 70 66 59
40 39 38 38 42 43 43 43 42 44 46 48 50 51 50 51 52 51 52 54 54 55 56 56 56 55 54 54 53 52 51 50 51 53 55 56 56 57 59 59 56 55 55 55
46 42 40 41 40 40 44 44 45 45 45 46 47 46 48 50 50 49 47 47 48 50 53 53 51 50 48 47 48 49 50 51 51 52 52 53 54 55 55 56 55 54 52 54
Wind_Direction
232 230 230 234 238 240 238 245 253 245 256 239 232 224 221 226 224 221 218 217 216 213 218 218 219 221 219 218 222 228 230 229 235 239 246 254 263 271 276 279 282 283 289 292
232 231 232 233 235 235 239 241 253 256 274 258 238 228 220 226 224 220 218 218 217 218 220 218 218 222 223 223 225 229 236 240 245 248 253 261 265 269 273 276 279 284 287 289
240 233 236 237 237 237 245 242 250 253 258 253 239 235 217 224 225 223 220 219 218 219 220 218 220 220 222 226 229 230 233 238 246 252 255 260 266 270 271 274 278 279 283 285
233 237 234 237 240 238 244 245 243 253 251 253 253 237 218 221 224 226 223 223 221 221 222 222 223 226 228 228 232 238 242 243 245 251 255 259 265 268 270 273 277 279 281 284
235 234 238 239 241 236 239 241 240 251 238 239 252 247 221 217 222 224 223 224 224 225 226 226 226 226 228 233 236 241 245 249 253 257 259 263 267 270 272 275 278 280 282 283
219 223 229 232 235 238 241 251 238 245 239 239 249 253 238 221 224 227 226 225 226 229 230 230 229 230 234 239 241 241 243 249 256 258 260 262 264 268 272 275 277 280 282 284
220 225 227 230 237 240 241 242 248 242 241 253 246 244 248 226 226 227 228 227 226 228 229 231 232 233 236 239 240 243 247 250 255 259 262 264 265 268 271 275 278 280 282 283
222 222 228 233 235 243 247 247 253 255 256 245 243 242 255 242 226 229 234 233 233 233 236 237 239 240 241 242 244 245 249 250 253 258 263 265 267 270 273 275 278 280 282 284
216 221 226 233 234 234 238 244 249 248 249 245 243 246 253 252 240 234 236 237 239 240 240 241 244 244 247 249 249 248 249 252 253 257 261 266 269 270 272 275 278 279 281 282
224 230 231 231 231 233 240 241 245 251 258 256 250 249 253 255 253 243 240 240 243 243 243 244 245 247 248 250 251 252 254 256 257 259 261 263 267 271 273 275 277 279 280 281
228 229 230 235 236 237 242 249 251 251 253 251 255 252 253 261 262 248 243 244 243 242 242 242 243 244 246 249 252 254 257 258 260 261 262 264 266 269 273 275 276 277 277 278
239 238 236 237 237 236 237 236 243 247 255 254 257 257 263 263 265 252 244 247 244 242 241 241 242 245 249 250 252 254 256 258 261 263 265 267 268 269 270 272 273 273 274 275
242 245 245 241 237 233 232 234 239 239 239 244 249 246 248 256 260 254 242 242 242 240 241 244 244 245 246 250 253 255 257 258 260 262 264 267 268 269 269 270 271 271 272 273
243 240 243 246 246 244 238 232 233 235 239 244 245 251 254 251 257 260 249 239 238 240 238 238 241 242 243 245 249 254 257 259 260 262 263 266 268 267 266 267 269 270 273 275
239 240 240 238 238 235 234 239 241 241 240 247 248 253 260 255 252 241 240 240 237 236 235 238 240 243 243 251 255 254 255 258 259 260 261 262 263 264 265 267 269 272 275 276
237 241 240 242 240 233 229 230 235 237 239 242 243 243 250 246 245 236 236 238 234 234 234 237 242 247 250 252 255 257 258 258 258 258 258 260 261 263 266 269 270 271 272 275
235 233 237 239 241 238 233 232 234 239 242 240 241 249 257 255 245 237 241 242 239 237 236 238 242 246 249 252 254 254 254 255 256 259 264 266 267 266 267 268 268 269 272 278
233 233 234 240 241 236 239 231 234 238 243 243 241 245 250 249 249 244 237 243 247 246 244 241 243 245 247 250 252 253 256 258 259 261 262 264 265 266 268 268 269 274 280 283
231 229 232 237 240 245 241 238 238 241 244 247 244 247 253 251 248 243 245 246 247 252 249 244 244 245 247 250 253 255 256 257 260 262 262 263 266 268 267 269 272 276 282 283
225 228 230 234 237 240 236 236 234 236 241 238 242 246 250 255 255 255 263 254 248 246 246 249 249 248 249 252 256 258 259 260 260 260 261 262 265 265 266 270 275 277 277 278
227 226 232 235 237 241 242 238 241 238 242 239 245 250 254 260 265 262 260 258 257 256 254 252 251 252 252 252 254 256 261 265 262 263 264 268 269 270 271 272 272 273 274 277
232 231 233 236 240 243 243 247 242 247 245 252 255 251 254 260 261 261 264 265 263 260 260 258 256 256 256 256 259 262 263 263 263 263 266 270 271 273 273 273 274 276 277 279
228 231 235 237 242 247 253 256 257 250 248 246 248 250 250 252 255 258 260 263 265 268 267 267 266 264 263 263 263 264 264 264 263 263 266 270 272 272 272 274 274 275 277 280
228 229 232 237 237 240 248 249 249 253 247 247 248 250 253 252 253 256 258 261 264 265 265 267 268 268 268 267 267 267 265 264 263 264 265 266 268 270 271 273 274 276 280 281
233 237 235 234 235 235 242 248 250 252 254 254 252 253 253 254 256 258 258 258 260 262 263 265 266 267 267 269 269 269 267 263 264 264 264 266 268 270 271 272 273 275 278 280
237 236 238 233 234 238 240 244 251 251 251 254 257 258 256 255 257 258 259 260 260 262 262 262 264 266 266 264 265 264 260 260 263 264 266 266 268 270 272 274 276 278 279 277
Height
5741 5747 5755 5760 5763 5768 5772 5776 5780 5786 5788 5790 5795 5802 5812 5816 5822 5826 5831 5835 5839 5842 5840 5846 5850 5852 5855 5859 5862 5865 5867 5868 5870 5870 5872 5873 5872 5872 5872 5872 5872 5871 5871 5870
5734 5741 5749 5751 5756 5761 5766 5770 5774 5777 5779 5782 5786 5792 5802 5806 5814 5818 5823 5827 5833 5834 5837 5841 5844 5848 5851 5853 5856 5860 5861 5862 5863 5863 5865 5866 5867 5867 5868 5867 5867 5866 5866 5865
5730 5738 5740 5744 5750 5756 5761 5763 5766 5769 5771 5773 5776 5781 5791 5797 5805 5810 5815 5820 5824 5829 5833 5837 5839 5841 5844 5848 5851 5854 5856 5858 5859 5859 5859 5860 5861 5862 5861 5861 5861 5862 5860 5859
5719 5728 5733 5740 5745 5752 5755 5757 5757 5761 5762 5767 5768 5772 5781 5789 5797 5803 5808 5812 5819 5824 5829 5832 5835 5839 5840 5841 5843 5848 5850 5851 5853 5855 5855 5856 5856 5857 5856 5856 5856 5856 5854 5852
5714 5722 5730 5736 5740 5742 5747 5745 5749 5753 5755 5755 5762 5765 5776 5777 5786 5793 5800 5806 5814 5820 5824 5827 5830 5831 5833 5837 5838 5839 5842 5844 5846 5848 5849 5850 5850 5850 5849 5850 5850 5849 5847 5846
5701 5708 5719 5726 5728 5732 5739 5741 5741 5743 5748 5751 5758 5759 5766 5772 5779 5788 5795 5801 5808 5813 5816 5819 5821 5824 5828 5831 5832 5834 5836 5838 5840 5841 5842 5843 5843 5843 5843 5843 5842 5842 5840 5838
5693 5703 5711 5715 5720 5724 5730 5732 5733 5737 5742 5752 5750 5748 5760 5769 5771 5778 5786 5792 5798 5802 5804 5809 5813 5819 5821 5824 5825 5828 5830 5831 5832 5833 5834 5835 5835 5835 5835 5835 5834 5833 5831 5829
5687 5695 5701 5706 5715 5720 5721 5723 5729 5732 5736 5744 5741 5746 5750 5759 5762 5771 5778 5785 5790 5797 5801 5805 5810 5813 5816 5818 5820 5821 5823 5823 5824 5825 5826 5826 5826 5828 5827 5826 5826 5825 5823 5821
5677 5684 5691 5698 5702 5706 5709 5714 5726 5723 5728 5733 5737 5744 5746 5752 5759 5766 5771 5775 5783 5789 5792 5796 5800 5803 5805 5808 5811 5812 5814 5817 5817 5818 5818 5818 5818 5818 5818 5818 5817 5816 5814 5811
5673 5676 5683 5687 5688 5693 5701 5709 5710 5715 5722 5728 5733 5736 5740 5742 5750 5756 5762 5767 5774 5779 5782 5786 5789 5792 5795 5796 5798 5800 5803 5806 5808 5809 5810 5810 5809 5809 5809 5808 5807 5805 5803 5800
5661 5669 5672 5677 5683 5688 5691 5695 5701 5706 5711 5718 5723 5727 5732 5734 5740 5744 5750 5756 5761 5766 5770 5773 5776 5780 5782 5784 5788 5791 5793 5795 5797 5798 5799 5799 5799 5799 5799 5798 5796 5794 5792 5789
5656 5657 5662 5671 5675 5678 5682 5689 5693 5696 5707 5707 5712 5720 5722 5727 5733 5736 5739 5744 5748 5753 5757 5761 5765 5769 5772 5774 5777 5779 5781 5783 5785 5787 5788 5788 5788 5788 5787 5786 5785 5783 5781 5778
5648 5649 5655 5660 5666 5671 5674 5680 5686 5689 5692 5697 5701 5714 5716 5719 5722 5727 5730 5733 5737 5742 5746 5750 5754 5757 5759 5762 5765 5768 5771 5772 5773 5774 5776 5776 5776 5776 5776 5774 5773 5771 5769 5767
5635 5639 5645 5652 5664 5668 5670 5673 5676 5678 5680 5690 5694 5702 5706 5713 5716 5716 5718 5723 5727 5731 5734 5738 5742 5745 5747 5750 5753 5756 5759 5760 5762 5763 5763 5764 5764 5763 5763 5762 5761 5759 5758 5756
5623 5628 5637 5645 5648 5654 5662 5666 5670 5670 5678 5677 5700 5690 5699 5703 5703 5704 5707 5713 5718 5720 5724 5727 5731 5733 5735 5739 5742 5744 5746 5749 5750 5750 5750 5750 5750 5750 5749 5749 5748 5748 5747 5745
5613 5622 5630 5635 5638 5641 5646 5653 5658 5663 5670 5675 5680 5688 5689 5689 5692 5695 5699 5702 5706 5709 5714 5718 5721 5723 5725 5728 5731 5733 5735 5737 5738 5739 5738 5738 5738 5737 5737 5738 5738 5737 5735 5733
5607 5613 5620 5626 5628 5630 5631 5644 5650 5657 5662 5670 5670 5684 5679 5680 5682 5686 5687 5689 5695 5701 5704 5706 5709 5712 5715 5718 5720 5723 5724 5726 5727 5728 5728 5728 5728 5727 5726 5726 5726 5725 5723 5721
5599 5606 5612 5616 5617 5611 5631 5634 5642 5646 5654 5658 5665 5666 5668 5671 5673 5675 5678 5681 5686 5691 5692 5695 5699 5702 5704 5706 5710 5711 5713 5714 5715 5716 5716 5716 5716 5715 5715 5714 5713 5711 5708 5706
5590 5594 5599 5602 5607 5615 5619 5629 5636 5637 5645 5652 5656 5656 5656 5660 5658 5665 5670 5671 5675 5680 5683 5685 5687 5690 5692 5694 5695 5697 5699 5701 5703 5703 5703 5703 5702 5701 5700 5699 5697 5695 5693 5691
5581 5586 5590 5593 5597 5601 5623 5618 5624 5626 5631 5645 5645 5645 5646 5646 5647 5661 5659 5659 5662 5664 5666 5669 5674 5677 5680 5683 5683 5684 5686 5687 5689 5689 5688 5686 5686 5685 5685 5683 5682 5680 5678 5675
5571 5574 5578 5583 5587 5597 5600 5610 5612 5616 5638 5634 5633 5634 5636 5638 5640 5643 5646 5648 5650 5653 5655 5657 5660 5663 5665 5668 5669 5671 5672 5674 5675 5673 5672 5671 5670 5670 5669 5668 5666 5663 5660 5658
5564 5566 5569 5574 5580 5585 5592 5593 5603 5616 5617 5616 5620 5625 5627 5629 5630 5632 5633 5634 5638 5640 5641 5643 5646 5648 5650 5653 5654 5655 5657 5658 5658 5657 5655 5655 5654 5653 5652 5651 5648 5646 5644 5642
5552 5555 5560 5566 5573 5578 5582 5587 5591 5600 5603 5606 5607 5610 5614 5616 5617 5619 5620 5621 5623 5627 5630 5632 5633 5634 5636 5637 5638 5641 5642 5641 5641 5640 5640 5639 5638 5637 5636 5634 5632 5630 5629 5627
5542 5547 5550 5556 5562 5565 5567 5572 5576 5580 5586 5590 5593 5596 5598 5603 5605 5606 5608 5609 5609 5612 5614 5617 5618 5619 5620 5621 5622 5624 5625 5624 5624 5624 5623 5623 5623 5622 5621 5618 5617 5615 5614 5612
5535 5538 5543 5547 5550 5555 5557 5559 5563 5567 5571 5576 5581 5584 5586 5588 5590 5593 5595 5598 5598 5598 5599 5600 5602 5604 5605 5606 5607 5608 5608 5608 5608 5608 5608 5608 5608 5608 5606 5605 5603 5601 5600 5598
5522 5528 5531 5536 5541 5545 5548 5550 5551 5555 5559 5562 5565 5569 5572 5575 5577 5579 5582 5584 5585 5586 5587 5588 5588 5589 5590 5592 5593 5594 5594 5594 5595 5595 5595 5595 5594 5594 5593 5591 5589 5587 5585 5584